BAW2817 DAAG-EGKK

Flight info

Callsign BAW2817
Flight time 2h 24m
Altitude 34000
Route PECES DCT MAMOM DCT ELTAN DCT MHN DCT MEROS DCT LAPIT DCT CHELY DCT LUMAS DCT SOFFY DCT MRM DCT MTL DCT ETREK DCT MADOT DCT MOPEM DCT CACHI DCT AVLON DCT OKRIX DCT BRY DCT CLM DCT KOPOR DCT KESAX DCT KUNAV
Aircraft A321/M-SDE3FGHIRWY/LB1

Departure

Time 2026-05-08 13:03
Airport Houari Boumediene Airport (DAAG)

Arrival

Time 2026-05-08 15:28
Airport London Gatwick Airport (EGKK)
Time Latitude Longitude Altitude Speed Heading
2026-05-08 12:30 36.69641 3.20268 88 ft 0 kts 274°
2026-05-08 12:55 36.69640 3.20277 91 ft 2 kts 274°
2026-05-08 12:55 36.69639 3.20302 88 ft 3 kts 274°
2026-05-08 12:55 36.69638 3.20322 88 ft 3 kts 272°
2026-05-08 12:56 36.69639 3.20346 89 ft 3 kts 245°
2026-05-08 12:56 36.69650 3.20363 89 ft 3 kts 201°
2026-05-08 12:56 36.69669 3.20368 90 ft 3 kts 181°
2026-05-08 12:56 36.69681 3.20368 89 ft 1 kts 181°
2026-05-08 12:57 36.69683 3.20368 89 ft 0 kts 181°
2026-05-08 12:59 36.69676 3.20368 90 ft 4 kts 181°
2026-05-08 12:59 36.69619 3.20367 88 ft 13 kts 181°
2026-05-08 12:59 36.69505 3.20363 88 ft 16 kts 182°
2026-05-08 12:59 36.69447 3.20426 88 ft 13 kts 94°
2026-05-08 13:00 36.69443 3.20544 88 ft 14 kts 91°
2026-05-08 13:00 36.69441 3.20671 88 ft 15 kts 92°
2026-05-08 13:00 36.69435 3.20806 92 ft 16 kts 94°
2026-05-08 13:00 36.69387 3.20906 91 ft 13 kts 106°
2026-05-08 13:01 36.69384 3.21026 88 ft 14 kts 90°
2026-05-08 13:01 36.69384 3.21161 88 ft 19 kts 90°
2026-05-08 13:01 36.69384 3.21367 88 ft 28 kts 90°
2026-05-08 13:01 36.69385 3.21609 88 ft 28 kts 90°
2026-05-08 13:02 36.69383 3.21852 88 ft 28 kts 91°
2026-05-08 13:02 36.69404 3.22038 91 ft 17 kts 40°
2026-05-08 13:02 36.69474 3.22160 87 ft 23 kts 53°
2026-05-08 13:02 36.69693 3.22519 88 ft 88 kts 53°
2026-05-08 13:03 36.70196 3.23341 92 ft 148 kts 52°
2026-05-08 13:03 36.70876 3.24497 389 ft 169 kts 50°
2026-05-08 13:03 36.71751 3.25414 1093 ft 168 kts 20°
2026-05-08 13:03 36.72948 3.25515 1506 ft 186 kts 351°
2026-05-08 13:04 36.74292 3.25142 1697 ft 209 kts 348°
2026-05-08 13:04 36.75794 3.24708 1799 ft 237 kts 350°
2026-05-08 13:04 36.77470 3.24812 2268 ft 250 kts 18°
2026-05-08 13:04 36.79141 3.25573 2847 ft 261 kts 19°
2026-05-08 13:05 36.80889 3.26314 3490 ft 269 kts 18°
2026-05-08 13:05 36.82699 3.27043 4130 ft 277 kts 17°
2026-05-08 13:05 36.84554 3.27779 4830 ft 282 kts 17°
2026-05-08 13:05 36.86445 3.28525 5483 ft 288 kts 15°
2026-05-08 13:06 36.88374 3.29287 6144 ft 294 kts 15°
2026-05-08 13:06 36.90341 3.30065 6779 ft 299 kts 15°
2026-05-08 13:06 36.92335 3.30861 7436 ft 302 kts 15°
2026-05-08 13:06 36.94347 3.31671 8124 ft 305 kts 15°
2026-05-08 13:07 36.96376 3.32492 8836 ft 308 kts 14°
2026-05-08 13:07 36.98427 3.33323 9494 ft 312 kts 14°
2026-05-08 13:07 37.00507 3.34161 10106 ft 318 kts 14°
2026-05-08 13:07 37.02684 3.35032 10262 ft 340 kts 14°
2026-05-08 13:08 37.05005 3.35961 10417 ft 359 kts 14°
2026-05-08 13:08 37.07413 3.36931 10867 ft 367 kts 14°
2026-05-08 13:08 37.09852 3.37920 11455 ft 370 kts 14°
2026-05-08 13:08 37.12312 3.38922 12001 ft 373 kts 14°
2026-05-08 13:09 37.14791 3.39929 12614 ft 376 kts 14°
2026-05-08 13:09 37.17288 3.40944 13227 ft 379 kts 14°
2026-05-08 13:09 37.19804 3.41967 13825 ft 382 kts 15°
2026-05-08 13:09 37.22337 3.42995 14338 ft 385 kts 14°
2026-05-08 13:10 37.24900 3.44037 14851 ft 389 kts 14°
2026-05-08 13:10 37.27487 3.45089 15350 ft 393 kts 14°
2026-05-08 13:10 37.30100 3.46152 15845 ft 397 kts 14°
2026-05-08 13:10 37.32733 3.47222 16339 ft 400 kts 14°
2026-05-08 13:11 37.35397 3.48306 16825 ft 404 kts 14°
2026-05-08 13:11 37.38049 3.49390 17297 ft 408 kts 13°
2026-05-08 13:11 37.40761 3.50501 17764 ft 412 kts 13°
2026-05-08 13:11 37.43496 3.51621 18266 ft 415 kts 13°
2026-05-08 13:12 37.46249 3.52745 18705 ft 417 kts 13°
2026-05-08 13:12 37.49021 3.53876 19125 ft 420 kts 13°
2026-05-08 13:12 37.51807 3.55015 19534 ft 424 kts 13°
2026-05-08 13:12 37.54622 3.56168 19936 ft 427 kts 13°
2026-05-08 13:13 37.57460 3.57332 20336 ft 430 kts 13°
2026-05-08 13:13 37.60318 3.58505 20711 ft 433 kts 12°
2026-05-08 13:13 37.63191 3.59681 21114 ft 436 kts 12°
2026-05-08 13:13 37.66091 3.60872 21492 ft 440 kts 12°
2026-05-08 13:14 37.69012 3.62076 21867 ft 443 kts 12°
2026-05-08 13:14 37.71957 3.63288 22227 ft 447 kts 12°
2026-05-08 13:14 37.74917 3.64506 22594 ft 450 kts 12°
2026-05-08 13:14 37.77903 3.65737 22959 ft 453 kts 12°
2026-05-08 13:15 37.80911 3.66976 23329 ft 456 kts 12°
2026-05-08 13:15 37.83936 3.68224 23665 ft 459 kts 12°
2026-05-08 13:15 37.86978 3.69482 23976 ft 461 kts 12°
2026-05-08 13:15 37.90032 3.70747 24316 ft 464 kts 12°
2026-05-08 13:16 37.93101 3.72020 24641 ft 466 kts 12°
2026-05-08 13:16 37.96193 3.73305 24962 ft 468 kts 12°
2026-05-08 13:16 37.99293 3.74594 25280 ft 470 kts 12°
2026-05-08 13:16 38.02366 3.75871 25588 ft 472 kts 12°
2026-05-08 13:17 38.05529 3.77184 25898 ft 474 kts 12°
2026-05-08 13:17 38.08673 3.78488 26206 ft 476 kts 12°
2026-05-08 13:17 38.11830 3.79800 26505 ft 478 kts 12°
2026-05-08 13:17 38.14958 3.81103 26828 ft 480 kts 12°
2026-05-08 13:18 38.18174 3.82445 27133 ft 482 kts 12°
2026-05-08 13:18 38.21327 3.83762 27418 ft 484 kts 12°
2026-05-08 13:18 38.24538 3.85104 27693 ft 487 kts 12°
2026-05-08 13:18 38.27802 3.86469 27970 ft 489 kts 13°
2026-05-08 13:19 38.31002 3.87813 28237 ft 492 kts 13°
2026-05-08 13:19 38.34306 3.89197 28515 ft 494 kts 12°
2026-05-08 13:19 38.37540 3.90550 28782 ft 497 kts 13°
2026-05-08 13:19 38.39758 3.91480 28953 ft 498 kts 13°
2026-05-08 13:20 38.44133 3.93316 29302 ft 501 kts 13°
2026-05-08 13:20 38.47462 3.94673 29558 ft 501 kts
2026-05-08 13:20 38.50861 3.95512 29837 ft 496 kts
2026-05-08 13:20 38.54273 3.96155 30098 ft 497 kts
2026-05-08 13:21 38.56592 3.96591 30246 ft 499 kts
2026-05-08 13:21 38.60023 3.97236 30484 ft 500 kts
2026-05-08 13:21 38.63471 3.97888 30698 ft 501 kts
2026-05-08 13:21 38.66884 3.98536 30896 ft 502 kts
2026-05-08 13:22 38.70346 3.99194 31097 ft 503 kts
2026-05-08 13:22 38.73854 3.99863 31369 ft 502 kts
2026-05-08 13:22 38.77301 4.00520 31639 ft 502 kts
2026-05-08 13:22 38.80707 4.01171 31904 ft 501 kts
2026-05-08 13:23 38.84155 4.01834 32200 ft 500 kts
2026-05-08 13:23 38.87635 4.02503 32472 ft 499 kts
2026-05-08 13:23 38.91072 4.03158 32733 ft 499 kts
2026-05-08 13:23 38.94459 4.03801 32988 ft 498 kts
2026-05-08 13:24 38.97888 4.04452 33249 ft 498 kts
2026-05-08 13:24 39.01350 4.05112 33508 ft 497 kts
2026-05-08 13:24 39.04725 4.05761 33758 ft 496 kts
2026-05-08 13:24 39.08142 4.06420 33977 ft 496 kts
2026-05-08 13:25 39.14880 4.07724 34013 ft 486 kts
2026-05-08 13:25 39.21553 4.09010 34012 ft 485 kts
2026-05-08 13:26 39.28231 4.10297 34038 ft 485 kts
2026-05-08 13:26 39.34890 4.11589 34016 ft 483 kts
2026-05-08 13:27 39.41541 4.12874 34019 ft 483 kts
2026-05-08 13:27 39.48188 4.14165 34026 ft 484 kts
2026-05-08 13:28 39.54846 4.15463 34049 ft 484 kts
2026-05-08 13:28 39.61502 4.16764 34050 ft 484 kts
2026-05-08 13:29 39.68158 4.18071 34053 ft 484 kts
2026-05-08 13:29 39.74811 4.19374 34062 ft 483 kts
2026-05-08 13:30 39.81421 4.20664 34036 ft 484 kts
2026-05-08 13:30 39.88118 4.21985 34044 ft 485 kts
2026-05-08 13:31 39.94776 4.23497 34046 ft 485 kts
2026-05-08 13:31 40.01408 4.25127 34064 ft 485 kts
2026-05-08 13:32 40.08043 4.26739 34054 ft 485 kts
2026-05-08 13:32 40.14635 4.28277 34055 ft 484 kts
2026-05-08 13:33 40.21267 4.29820 34062 ft 484 kts
2026-05-08 13:33 40.27889 4.31391 34050 ft 483 kts
2026-05-08 13:34 40.34497 4.32965 34051 ft 483 kts
2026-05-08 13:34 40.41108 4.34540 34069 ft 483 kts
2026-05-08 13:35 40.47715 4.36114 34062 ft 482 kts
2026-05-08 13:35 40.54314 4.37681 34059 ft 482 kts
2026-05-08 13:36 40.60906 4.39255 34059 ft 481 kts
2026-05-08 13:36 40.67493 4.40835 34057 ft 481 kts
2026-05-08 13:37 40.74076 4.42411 34053 ft 481 kts
2026-05-08 13:37 40.80645 4.43997 34052 ft 480 kts
2026-05-08 13:38 40.87218 4.45582 34065 ft 480 kts
2026-05-08 13:38 40.93777 4.47169 34062 ft 479 kts
2026-05-08 13:39 41.00328 4.48759 34061 ft 478 kts
2026-05-08 13:39 41.06876 4.50343 34073 ft 478 kts
2026-05-08 13:40 41.13411 4.51926 34072 ft 477 kts
2026-05-08 13:40 41.19882 4.53502 34068 ft 475 kts
2026-05-08 13:41 41.26382 4.55097 34081 ft 474 kts
2026-05-08 13:41 41.32872 4.56682 34074 ft 474 kts
2026-05-08 13:42 41.39341 4.58270 34058 ft 473 kts
2026-05-08 13:42 41.45809 4.59864 34063 ft 472 kts
2026-05-08 13:43 41.52270 4.61461 34073 ft 472 kts
2026-05-08 13:43 41.58723 4.63055 34071 ft 471 kts
2026-05-08 13:44 41.65169 4.64644 34063 ft 471 kts
2026-05-08 13:44 41.71608 4.66230 34076 ft 470 kts
2026-05-08 13:45 41.77941 4.68460 34074 ft 471 kts 13°
2026-05-08 13:45 41.84216 4.70920 34070 ft 470 kts 13°
2026-05-08 13:46 41.90486 4.73380 34073 ft 469 kts 13°
2026-05-08 13:46 41.96738 4.75840 34074 ft 467 kts 13°
2026-05-08 13:47 42.02970 4.78300 34071 ft 466 kts 13°
2026-05-08 13:47 42.09181 4.80759 34069 ft 465 kts 13°
2026-05-08 13:48 42.15403 4.83225 34068 ft 466 kts 13°
2026-05-08 13:48 42.21613 4.85685 34061 ft 466 kts 13°
2026-05-08 13:49 42.27836 4.88154 34061 ft 466 kts 13°
2026-05-08 13:49 42.34061 4.90633 34052 ft 467 kts 13°
2026-05-08 13:50 42.40296 4.93126 34029 ft 467 kts 13°
2026-05-08 13:50 42.46540 4.95618 34036 ft 468 kts 12°
2026-05-08 13:51 42.52748 4.98110 34056 ft 469 kts 12°
2026-05-08 13:51 42.59000 5.00618 34053 ft 469 kts 12°
2026-05-08 13:52 42.65261 5.03138 34054 ft 469 kts 12°
2026-05-08 13:52 42.71524 5.05670 34056 ft 470 kts 12°
2026-05-08 13:53 42.77791 5.08199 34059 ft 470 kts 12°
2026-05-08 13:53 42.84049 5.10726 34059 ft 470 kts 12°
2026-05-08 13:54 42.90313 5.13268 34062 ft 469 kts 12°
2026-05-08 13:54 42.96568 5.15814 34067 ft 469 kts 12°
2026-05-08 13:55 43.02812 5.18361 34054 ft 468 kts 12°
2026-05-08 13:56 43.12172 5.22168 34069 ft 467 kts 12°
2026-05-08 13:56 43.18347 5.24680 34061 ft 466 kts 12°
2026-05-08 13:57 43.24554 5.27213 34061 ft 465 kts 12°
2026-05-08 13:57 43.30750 5.29764 34059 ft 464 kts 12°
2026-05-08 13:58 43.37006 5.31293 34067 ft 450 kts 355°
2026-05-08 13:58 43.43090 5.30194 34054 ft 435 kts 337°
2026-05-08 13:59 43.48813 5.27582 34050 ft 433 kts 335°
2026-05-08 13:59 43.54531 5.24977 34056 ft 433 kts 335°
2026-05-08 14:00 43.60252 5.22368 34048 ft 433 kts 335°
2026-05-08 14:00 43.65970 5.19750 34050 ft 433 kts 335°
2026-05-08 14:01 43.71684 5.17124 34071 ft 433 kts 335°
2026-05-08 14:01 43.77392 5.14493 34062 ft 432 kts 335°
2026-05-08 14:02 43.83091 5.11864 34057 ft 431 kts 335°
2026-05-08 14:02 43.88743 5.09256 34051 ft 430 kts 335°
2026-05-08 14:03 43.94460 5.06611 34058 ft 430 kts 335°
2026-05-08 14:03 44.00131 5.03978 34052 ft 429 kts 335°
2026-05-08 14:04 44.05747 5.01363 34048 ft 429 kts 335°
2026-05-08 14:04 44.11403 4.98728 34048 ft 429 kts 335°
2026-05-08 14:05 44.17054 4.96089 34061 ft 428 kts 335°
2026-05-08 14:05 44.22701 4.93454 34050 ft 428 kts 335°
2026-05-08 14:06 44.28357 4.90806 34045 ft 429 kts 335°
2026-05-08 14:06 44.34008 4.88143 34044 ft 429 kts 335°
2026-05-08 14:07 44.39669 4.85469 34020 ft 429 kts 335°
2026-05-08 14:07 44.45327 4.82798 34036 ft 429 kts 335°
2026-05-08 14:08 44.50984 4.80127 34020 ft 429 kts 335°
2026-05-08 14:08 44.56700 4.77720 34032 ft 434 kts 344°
2026-05-08 14:09 44.62671 4.76392 34032 ft 434 kts 345°
2026-05-08 14:09 44.68635 4.75089 34023 ft 433 kts 345°
2026-05-08 14:10 44.73583 4.73993 34022 ft 433 kts 345°
2026-05-08 14:10 44.79519 4.72668 34020 ft 432 kts 345°
2026-05-08 14:11 44.85461 4.71344 34011 ft 432 kts 345°
2026-05-08 14:11 44.91404 4.70016 34031 ft 432 kts 345°
2026-05-08 14:12 44.97335 4.68687 34022 ft 431 kts 345°
2026-05-08 14:12 45.03255 4.67370 34020 ft 430 kts 345°
2026-05-08 14:13 45.09163 4.66043 34014 ft 429 kts 345°
2026-05-08 14:13 45.15058 4.64709 34023 ft 428 kts 345°
2026-05-08 14:14 45.20934 4.63385 34018 ft 427 kts 345°
2026-05-08 14:14 45.26795 4.62049 33992 ft 427 kts 345°
2026-05-08 14:15 45.32652 4.60700 34013 ft 427 kts 345°
2026-05-08 14:15 45.38507 4.59366 34004 ft 426 kts 345°
2026-05-08 14:16 45.44356 4.58025 34002 ft 425 kts 345°
2026-05-08 14:16 45.50157 4.56682 34019 ft 425 kts 345°
2026-05-08 14:17 45.55985 4.55337 34011 ft 424 kts 345°
2026-05-08 14:17 45.61801 4.53995 34007 ft 423 kts 345°
2026-05-08 14:18 45.67613 4.52649 34003 ft 423 kts 345°
2026-05-08 14:18 45.73411 4.51304 34017 ft 422 kts 346°
2026-05-08 14:19 45.79206 4.49958 34014 ft 421 kts 345°
2026-05-08 14:19 45.84993 4.48611 34012 ft 421 kts 345°
2026-05-08 14:20 45.90771 4.47265 34010 ft 419 kts 345°
2026-05-08 14:20 45.96468 4.45935 34005 ft 417 kts 345°
2026-05-08 14:21 46.02184 4.44587 34004 ft 417 kts 345°
2026-05-08 14:21 46.07906 4.43239 34006 ft 416 kts 345°
2026-05-08 14:22 46.13621 4.41891 34019 ft 416 kts 345°
2026-05-08 14:22 46.19332 4.40546 34016 ft 416 kts 345°
2026-05-08 14:23 46.25038 4.39206 33988 ft 415 kts 346°
2026-05-08 14:23 46.30721 4.37758 34016 ft 413 kts 343°
2026-05-08 14:24 46.36296 4.35824 34005 ft 411 kts 340°
2026-05-08 14:24 46.41836 4.33731 34012 ft 412 kts 340°
2026-05-08 14:25 46.47394 4.31707 34013 ft 412 kts 341°
2026-05-08 14:25 46.52967 4.29761 34026 ft 412 kts 341°
2026-05-08 14:26 46.58537 4.27817 34021 ft 411 kts 341°
2026-05-08 14:26 46.64099 4.25857 34017 ft 411 kts 341°
2026-05-08 14:27 46.69618 4.23900 34012 ft 411 kts 341°
2026-05-08 14:27 46.75163 4.21926 34010 ft 411 kts 341°
2026-05-08 14:28 46.80713 4.19946 34010 ft 410 kts 341°
2026-05-08 14:28 46.86266 4.17967 34010 ft 411 kts 341°
2026-05-08 14:29 46.91820 4.15992 34031 ft 411 kts 341°
2026-05-08 14:29 46.97367 4.14007 34024 ft 410 kts 341°
2026-05-08 14:30 47.02906 4.12020 34019 ft 409 kts 341°
2026-05-08 14:30 47.08341 4.09704 34012 ft 404 kts 334°
2026-05-08 14:31 47.13561 4.06615 34019 ft 404 kts 334°
2026-05-08 14:31 47.18778 4.03520 34018 ft 404 kts 334°
2026-05-08 14:32 47.26571 3.98897 34015 ft 404 kts 334°
2026-05-08 14:32 47.31822 3.95785 34047 ft 404 kts 334°
2026-05-08 14:33 47.37000 3.92706 34037 ft 404 kts 333°
2026-05-08 14:33 47.42197 3.89608 34029 ft 403 kts 334°
2026-05-08 14:34 47.47391 3.86510 34026 ft 402 kts 334°
2026-05-08 14:34 47.52576 3.83402 34023 ft 402 kts 333°
2026-05-08 14:35 47.57739 3.80295 34037 ft 399 kts 333°
2026-05-08 14:35 47.62886 3.77205 34030 ft 399 kts 333°
2026-05-08 14:36 47.68028 3.74113 34012 ft 399 kts 333°
2026-05-08 14:36 47.73161 3.71016 34021 ft 398 kts 333°
2026-05-08 14:37 47.78296 3.67904 34037 ft 399 kts 333°
2026-05-08 14:37 47.83403 3.64796 34032 ft 399 kts 333°
2026-05-08 14:38 47.88573 3.61651 34031 ft 399 kts 333°
2026-05-08 14:38 47.93715 3.58520 34037 ft 399 kts 333°
2026-05-08 14:39 47.98818 3.55403 34054 ft 399 kts 333°
2026-05-08 14:39 48.03952 3.52253 34050 ft 399 kts 333°
2026-05-08 14:40 48.09085 3.49093 34047 ft 399 kts 333°
2026-05-08 14:40 48.14212 3.45929 34045 ft 399 kts 333°
2026-05-08 14:41 48.19347 3.42752 34058 ft 399 kts 333°
2026-05-08 14:41 48.24480 3.39575 34045 ft 399 kts 333°
2026-05-08 14:42 48.29603 3.36398 34051 ft 398 kts 333°
2026-05-08 14:42 48.34716 3.33223 34052 ft 397 kts 333°
2026-05-08 14:43 48.39813 3.30038 34079 ft 397 kts 333°
2026-05-08 14:43 48.44901 3.26833 34054 ft 396 kts 333°
2026-05-08 14:44 48.49979 3.23587 34051 ft 396 kts 333°
2026-05-08 14:44 48.55051 3.20329 34051 ft 397 kts 333°
2026-05-08 14:45 48.60096 3.17095 34047 ft 396 kts 333°
2026-05-08 14:45 48.65176 3.13825 34053 ft 397 kts 333°
2026-05-08 14:46 48.70272 3.10548 34045 ft 398 kts 333°
2026-05-08 14:46 48.75373 3.07256 34041 ft 399 kts 333°
2026-05-08 14:47 48.80478 3.03957 34033 ft 398 kts 333°
2026-05-08 14:47 48.85493 3.00500 34058 ft 393 kts 327°
2026-05-08 14:48 48.90232 2.96357 34063 ft 392 kts 327°
2026-05-08 14:48 48.94962 2.92220 34064 ft 392 kts 327°
2026-05-08 14:49 48.99680 2.88088 34062 ft 391 kts 327°
2026-05-08 14:49 49.04394 2.83957 34068 ft 391 kts 327°
2026-05-08 14:50 49.09103 2.79814 34074 ft 391 kts 327°
2026-05-08 14:50 49.13811 2.75653 34066 ft 391 kts 327°
2026-05-08 14:51 49.18529 2.71488 34061 ft 392 kts 327°
2026-05-08 14:51 49.23245 2.67310 34054 ft 392 kts 327°
2026-05-08 14:52 49.30311 2.61025 34063 ft 391 kts 327°
2026-05-08 14:53 49.34991 2.56859 34069 ft 390 kts 327°
2026-05-08 14:53 49.39677 2.52671 34070 ft 390 kts 327°
2026-05-08 14:54 49.44326 2.48505 34067 ft 389 kts 327°
2026-05-08 14:54 49.49002 2.44307 34068 ft 389 kts 327°
2026-05-08 14:55 49.53403 2.39528 34078 ft 387 kts 318°
2026-05-08 14:55 49.57488 2.34103 34071 ft 388 kts 318°
2026-05-08 14:56 49.61573 2.28678 34063 ft 388 kts 318°
2026-05-08 14:56 49.65664 2.23243 34037 ft 388 kts 318°
2026-05-08 14:57 49.69748 2.17800 34049 ft 388 kts 318°
2026-05-08 14:57 49.73823 2.12346 34065 ft 387 kts 318°
2026-05-08 14:58 49.77893 2.06893 34063 ft 387 kts 319°
2026-05-08 14:58 49.81956 2.01432 34060 ft 387 kts 318°
2026-05-08 14:59 49.86016 1.95964 34058 ft 387 kts 318°
2026-05-08 14:59 49.92093 1.87754 34058 ft 387 kts 318°
2026-05-08 15:00 49.96225 1.82170 34071 ft 399 kts 319°
2026-05-08 15:00 50.00441 1.76461 34054 ft 404 kts 318°
2026-05-08 15:01 50.02550 1.73594 33924 ft 401 kts 318°
2026-05-08 15:01 50.04636 1.70752 33373 ft 396 kts 318°
2026-05-08 15:01 50.06698 1.67941 32861 ft 392 kts 318°
2026-05-08 15:01 50.08048 1.66100 32534 ft 389 kts 319°
2026-05-08 15:02 50.10757 1.62422 31874 ft 383 kts 319°
2026-05-08 15:02 50.12085 1.60620 31548 ft 381 kts 319°
2026-05-08 15:02 50.14071 1.57926 31075 ft 376 kts 319°
2026-05-08 15:02 50.16034 1.55261 30605 ft 372 kts 319°
2026-05-08 15:03 50.17977 1.52625 30141 ft 368 kts 319°
2026-05-08 15:03 50.20515 1.49172 29439 ft 363 kts 319°
2026-05-08 15:03 50.22412 1.46586 28906 ft 361 kts 319°
2026-05-08 15:03 50.23685 1.44845 28560 ft 359 kts 319°
2026-05-08 15:04 50.25559 1.42281 28047 ft 357 kts 319°
2026-05-08 15:04 50.27425 1.39729 27542 ft 356 kts 319°
2026-05-08 15:04 50.29284 1.37191 27030 ft 354 kts 319°
2026-05-08 15:04 50.31135 1.34662 26550 ft 352 kts 319°
2026-05-08 15:05 50.32973 1.32144 26068 ft 350 kts 319°
2026-05-08 15:05 50.34801 1.29636 25602 ft 348 kts 319°
2026-05-08 15:05 50.36617 1.27136 25141 ft 347 kts 319°
2026-05-08 15:05 50.38424 1.24645 24682 ft 345 kts 319°
2026-05-08 15:06 50.40220 1.22162 24231 ft 343 kts 319°
2026-05-08 15:06 50.41982 1.19722 23802 ft 342 kts 319°
2026-05-08 15:06 50.43771 1.17244 23305 ft 344 kts 319°
2026-05-08 15:06 50.45588 1.14730 22776 ft 343 kts 319°
2026-05-08 15:07 50.47373 1.12258 22262 ft 343 kts 319°
2026-05-08 15:07 50.49158 1.09787 21763 ft 342 kts 319°
2026-05-08 15:07 50.50941 1.07324 21268 ft 341 kts 318°
2026-05-08 15:07 50.52609 1.04692 20780 ft 340 kts 313°
2026-05-08 15:08 50.54222 1.01975 20297 ft 338 kts 313°
2026-05-08 15:08 50.55821 0.99280 19831 ft 336 kts 313°
2026-05-08 15:08 50.57394 0.96623 19364 ft 336 kts 312°
2026-05-08 15:08 50.58988 0.93929 18908 ft 336 kts 312°
2026-05-08 15:09 50.60576 0.91246 18466 ft 334 kts 312°
2026-05-08 15:09 50.62157 0.88576 17962 ft 333 kts 311°
2026-05-08 15:09 50.63732 0.85915 17446 ft 331 kts 311°
2026-05-08 15:09 50.65296 0.83265 16962 ft 330 kts 311°
2026-05-08 15:10 50.66860 0.80607 16492 ft 331 kts 311°
2026-05-08 15:10 50.68415 0.77881 16028 ft 329 kts 309°
2026-05-08 15:10 50.69872 0.75121 15588 ft 327 kts 307°
2026-05-08 15:10 50.71285 0.72320 15120 ft 325 kts 306°
2026-05-08 15:11 50.72659 0.69556 14688 ft 323 kts 306°
2026-05-08 15:11 50.74046 0.66771 14251 ft 321 kts 307°
2026-05-08 15:11 50.75430 0.64012 13814 ft 319 kts 307°
2026-05-08 15:11 50.76810 0.61275 13327 ft 317 kts 307°
2026-05-08 15:12 50.78185 0.58561 12853 ft 315 kts 307°
2026-05-08 15:12 50.79549 0.55873 12393 ft 313 kts 307°
2026-05-08 15:12 50.80908 0.53197 11900 ft 311 kts 307°
2026-05-08 15:12 50.82256 0.50537 11454 ft 309 kts 307°
2026-05-08 15:13 50.83595 0.47893 11002 ft 307 kts 307°
2026-05-08 15:13 50.84927 0.45263 10560 ft 305 kts 306°
2026-05-08 15:13 50.86245 0.42658 10245 ft 298 kts 307°
2026-05-08 15:13 50.87522 0.40138 10012 ft 290 kts 306°
2026-05-08 15:14 50.88774 0.37661 9641 ft 287 kts 306°
2026-05-08 15:14 50.90015 0.35201 9203 ft 286 kts 306°
2026-05-08 15:14 50.91255 0.32737 8728 ft 286 kts 306°
2026-05-08 15:14 50.92498 0.30268 8262 ft 287 kts 307°
2026-05-08 15:15 50.93722 0.27827 8063 ft 277 kts 305°
2026-05-08 15:15 50.94593 0.25174 7731 ft 272 kts 285°
2026-05-08 15:15 50.95069 0.22273 7304 ft 271 kts 283°
2026-05-08 15:15 50.95476 0.19370 7072 ft 266 kts 281°
2026-05-08 15:16 50.95873 0.16592 7071 ft 250 kts 281°
2026-05-08 15:16 50.96250 0.13971 7075 ft 242 kts 282°
2026-05-08 15:16 50.96612 0.11370 7078 ft 241 kts 281°
2026-05-08 15:16 50.96974 0.08774 7081 ft 241 kts 281°
2026-05-08 15:17 50.97337 0.06180 7080 ft 240 kts 281°
2026-05-08 15:17 50.97707 0.03597 7082 ft 240 kts 282°
2026-05-08 15:17 50.98064 0.01039 7082 ft 241 kts 281°
2026-05-08 15:17 50.98424 -0.01558 7088 ft 240 kts 280°
2026-05-08 15:18 50.98816 -0.04125 7081 ft 239 kts 281°
2026-05-08 15:18 50.99216 -0.06669 6837 ft 237 kts 282°
2026-05-08 15:18 50.99600 -0.09213 6478 ft 237 kts 282°
2026-05-08 15:18 50.99975 -0.11747 6166 ft 237 kts 281°
2026-05-08 15:19 51.00354 -0.14282 5848 ft 235 kts 281°
2026-05-08 15:19 51.00747 -0.16803 5543 ft 235 kts 281°
2026-05-08 15:19 51.01132 -0.19330 5236 ft 235 kts 281°
2026-05-08 15:19 51.01524 -0.21832 4935 ft 232 kts 281°
2026-05-08 15:20 51.01913 -0.24283 4723 ft 224 kts 281°
2026-05-08 15:20 51.02287 -0.26620 4566 ft 214 kts 281°
2026-05-08 15:20 51.02651 -0.28867 4375 ft 205 kts 281°
2026-05-08 15:20 51.03003 -0.31022 4187 ft 200 kts 281°
2026-05-08 15:21 51.03348 -0.33153 3933 ft 199 kts 281°
2026-05-08 15:21 51.03686 -0.35285 3678 ft 199 kts 282°
2026-05-08 15:21 51.04003 -0.37411 3435 ft 197 kts 281°
2026-05-08 15:21 51.04311 -0.39535 3177 ft 197 kts 281°
2026-05-08 15:22 51.04622 -0.41662 3027 ft 199 kts 282°
2026-05-08 15:22 51.04939 -0.43805 2999 ft 199 kts 281°
2026-05-08 15:22 51.05316 -0.45909 2988 ft 199 kts 296°
2026-05-08 15:22 51.06282 -0.47430 3006 ft 199 kts 335°
2026-05-08 15:23 51.07590 -0.48215 3026 ft 202 kts 347°
2026-05-08 15:23 51.08961 -0.48304 3016 ft 197 kts 18°
2026-05-08 15:23 51.10168 -0.47428 3003 ft 189 kts 42°
2026-05-08 15:23 51.10989 -0.45843 3002 ft 184 kts 68°
2026-05-08 15:24 51.11344 -0.43913 3022 ft 182 kts 81°
2026-05-08 15:24 51.11620 -0.41950 2879 ft 183 kts 81°
2026-05-08 15:24 51.11897 -0.39976 2663 ft 182 kts 80°
2026-05-08 15:24 51.12173 -0.38014 2424 ft 181 kts 81°
2026-05-08 15:25 51.12447 -0.36057 2184 ft 181 kts 80°
2026-05-08 15:25 51.12718 -0.34117 1931 ft 178 kts 81°
2026-05-08 15:25 51.12982 -0.32232 1707 ft 170 kts 79°
2026-05-08 15:25 51.13231 -0.30449 1495 ft 162 kts 82°
2026-05-08 15:26 51.13469 -0.28736 1271 ft 159 kts 80°
2026-05-08 15:26 51.13700 -0.27084 1043 ft 146 kts 82°
2026-05-08 15:26 51.13915 -0.25535 845 ft 139 kts 82°
2026-05-08 15:26 51.14124 -0.24033 668 ft 138 kts 81°
2026-05-08 15:27 51.14335 -0.22555 477 ft 139 kts 80°
2026-05-08 15:27 51.14540 -0.21031 308 ft 139 kts 79°
2026-05-08 15:27 51.14743 -0.19546 217 ft 130 kts 80°
2026-05-08 15:27 51.14901 -0.18393 215 ft 83 kts 78°
2026-05-08 15:28 51.14991 -0.17775 213 ft 42 kts 77°
2026-05-08 15:28 51.15060 -0.17357 215 ft 32 kts 64°
2026-05-08 15:28 51.15156 -0.17228 208 ft 11 kts 342°
2026-05-08 15:28 51.15202 -0.17272 214 ft 7 kts 326°
2026-05-08 15:29 51.15222 -0.17294 209 ft 0 kts 326°
2026-05-08 15:29 51.15234 -0.17307 216 ft 7 kts 326°
2026-05-08 15:29 51.15248 -0.17322 213 ft 2 kts 326°
2026-05-08 15:30 51.15273 -0.17343 208 ft 10 kts 339°
2026-05-08 15:30 51.15393 -0.17387 215 ft 19 kts 348°
2026-05-08 15:30 51.15513 -0.17430 215 ft 15 kts 347°
2026-05-08 15:30 51.15575 -0.17440 207 ft 7 kts 16°
2026-05-08 15:31 51.15599 -0.17346 207 ft 13 kts 77°
2026-05-08 15:31 51.15622 -0.17204 209 ft 13 kts 76°
2026-05-08 15:31 51.15642 -0.17061 205 ft 16 kts 77°
2026-05-08 15:31 51.15670 -0.16859 207 ft 21 kts 79°
2026-05-08 15:32 51.15702 -0.16754 210 ft 7 kts 12°
2026-05-08 15:32 51.15744 -0.16766 210 ft 2 kts 347°
2026-05-08 15:32 51.15750 -0.16768 216 ft 0 kts 348°
2026-05-08 15:32 51.15751 -0.16768 216 ft 0 kts 348°